Location: Clayton (historical)
(34.0300°N, 118.0259°W)
Time: 10:18:39
(UTC+00:00)

Hubble Space Telescope - Pass Details

Date: 23 January 2021
Orbit: 536 x 539 km, 28.5° (Epoch: 28 February)

Event Time Altitude Azimuth Distance (km) Brightness Sun altitude
Rises 03:14:39 0° 263° (W) 2,675 5.7 -25.0°
Reaches altitude 10° 03:17:04 10° 253° (WSW) 1,784 4.4 -25.5°
Enters shadow 03:20:18 31° 203° (SSW) 952 2.2 -26.2°
